Tracking 29892 objects as of 21-Nov-2024
HD Live streaming from Space Station
objects crossing your sky now

STARLINK-6261

Track STARLINK-6261 now!
10-day predictions
STARLINK-6261 is classified as:


NORAD ID: 56417
Int'l Code: 2023-061AV
Perigee: 565.5 km
Apogee: 566.8 km
Inclination: 43.0 °
Period: 95.8 minutes
Semi major axis: 6937 km
RCS: Unknown
Launch date: May 4, 2023
Source: United States (US)
Launch site: AIR FORCE EASTERN TEST RANGE (AFETR)
Your satellite tracking list
Your tracking list is empty




NASA's NSSDC Master Catalog

Two Line Element Set (TLE):
1 56417U 23061AV  24325.80991693  .00002178  00000-0  17621-3 0  9994
2 56417  42.9984 239.1582 0000947 265.1440  94.9294 15.02550907 85625
Source of the keplerian elements: AFSPC